(237326) = 2009 BF161

Discovered at Mount Lemmon on 2009-01-31 by Mt. Lemmon Survey.

Orbit

Orbit type: Main Belt

Note: WebGL enabled browser required.

epoch2023-09-13.0
epoch JD2460200.5
perihelion date2022-11-04.67652
perihelion JD2459888.17652
argument of perihelion (°)57.61184
ascending node (°)229.31578
inclination (°)3.83480
eccentricity0.0929923
perihelion distance (AU)2.8950417
Tisserand w.r.t. Jupiter3.2
ΔV w.r.t. Earth (km/sec)10.6
semimajor axis (AU)3.1918600
mean anomaly (°)53.98122
mean daily motion (°/day)0.17283760
aphelion distance (AU)3.489
period (years)5.7
P-vector [x]0.28972962
P-vector [y]-0.89906470
P-vector [z]-0.32823682
Q-vector [x]0.95576390
Q-vector [y]0.25360432
Q-vector [z]0.14899735
absolute magnitude16.03
phase slope0.15
uncertainty0
referenceMPO 778677
observations used279
oppositions18
arc length (days)11150
first opposition used1993
last opposition used2023
residual rms (arc-secs)0.77
perturbers coarse indicatorM-v
perturbers precise indicator003Ek
first observation date used1993-04-25.0
last observation date used2023-11-04.0
computer nameMPCLINUX
Minimum Orbit Intersection Distances (in AU)
for orbit epoch: 2460200.5, reference: E2023-V42
Mercury2.44285
Venus2.17084
Earth1.88047
Mars1.44278
Jupiter1.63414
Saturn5.57675
Uranus15.086
Neptune26.5133

Observations

285 total observations over interval: 1993 04 25.23753 – 2023 11 04.256299
These data are available for download (format description).

Date (UT) J2000 RA J2000 Dec Magn Location Ref
1993 04 25.23753 13 46 24.77 -13 02 49.1   691 – Steward Observatory, Kitt Peak-Spacewatch MPS 276729
1993 04 25.27012 13 46 23.24 -13 02 39.5   691 – Steward Observatory, Kitt Peak-Spacewatch MPS 276729
1993 04 25.30275 13 46 21.73 -13 02 28.3 20.3 V 691 – Steward Observatory, Kitt Peak-Spacewatch MPS 276729
1999 06 08.19631 15 33 09.86 -17 55 55.3 20.5 V 691 – Steward Observatory, Kitt Peak-Spacewatch MPS 276729
1999 06 08.21799 15 33 08.99 -17 55 51.1 20.5 V 691 – Steward Observatory, Kitt Peak-Spacewatch MPS 276729
1999 06 08.23980 15 33 08.11 -17 55 46.9 20.5 V 691 – Steward Observatory, Kitt Peak-Spacewatch MPS 276729
2001 11 14.20150 03 20 19.27 +18 14 32.6 21.2 V 291 – LPL/Spacewatch II MPS 276729
2001 11 14.22287 03 20 18.21 +18 14 27.3 21.1 V 291 – LPL/Spacewatch II MPS 276729
2001 11 14.24437 03 20 17.13 +18 14 22.7 21.3 V 291 – LPL/Spacewatch II MPS 276729
2004 03 13.32788 12 00 32.30 -04 44 52.4 19.9   644 – Palomar Mountain/NEAT MPS 276729
2004 03 13.35421 12 00 31.14 -04 44 44.5 20.1   644 – Palomar Mountain/NEAT MPS 276729
2004 03 13.38899 12 00 29.66 -04 44 33.9 19.8   644 – Palomar Mountain/NEAT MPS 276729
2004 03 28.25644 11 49 52.18 -03 26 09.3 21.1 V 691 – Steward Observatory, Kitt Peak-Spacewatch MPS 276729
2004 03 28.28469 11 49 50.92 -03 25 59.9 21.1 V 691 – Steward Observatory, Kitt Peak-Spacewatch MPS 276729
2004 03 28.31190 11 49 49.75 -03 25 51.5 21.2 V 691 – Steward Observatory, Kitt Peak-Spacewatch MPS 276729
2006 08 21.38737 00 18 08.10 +06 43 24.6 20.9 V 691 – Steward Observatory, Kitt Peak-Spacewatch MPS 276729
2006 08 21.40473 00 18 07.69 +06 43 22.5 21.0 V 691 – Steward Observatory, Kitt Peak-Spacewatch MPS 276729
2006 08 21.42209 00 18 07.25 +06 43 20.6 20.9 V 691 – Steward Observatory, Kitt Peak-Spacewatch MPS 276729
2006 10 23.15456 23 40 39.90 +01 56 22.3 20.6 V G96 – Mt. Lemmon Survey MPS 276729
2006 10 23.15957 23 40 39.79 +01 56 21.5 21.0 V G96 – Mt. Lemmon Survey MPS 276729
2006 10 23.16450 23 40 39.61 +01 56 20.2 20.6 V G96 – Mt. Lemmon Survey MPS 276729
2006 10 23.16951 23 40 39.46 +01 56 19.1 21.0 V G96 – Mt. Lemmon Survey MPS 276729
2007 11 09.33317 04 59 05.65 +21 07 11.9 20.9 V 691 – Steward Observatory, Kitt Peak-Spacewatch MPS 276729
2007 11 09.34845 04 59 05.04 +21 07 10.0 20.8 V 691 – Steward Observatory, Kitt Peak-Spacewatch MPS 276729
2007 11 09.36372 04 59 04.49 +21 07 07.8 20.9 V 691 – Steward Observatory, Kitt Peak-Spacewatch MPS 276729
2007 11 18.30101 04 52 54.90 +20 48 39.0   691 – Steward Observatory, Kitt Peak-Spacewatch MPS 276729
2007 11 18.31865 04 52 54.08 +20 48 36.8   691 – Steward Observatory, Kitt Peak-Spacewatch MPS 276729
2007 11 18.33630 04 52 53.25 +20 48 34.4   691 – Steward Observatory, Kitt Peak-Spacewatch MPS 276729
2008 01 10.19324 04 15 45.93 +19 01 11.8 21.1 V G96 – Mt. Lemmon Survey MPS 276729
2008 01 10.20112 04 15 45.79 +19 01 11.2 21.3 V G96 – Mt. Lemmon Survey MPS 276729
2008 01 10.20899 04 15 45.57 +19 01 11.1 21.8 V G96 – Mt. Lemmon Survey MPS 276729
2008 01 10.21686 04 15 45.43 +19 01 10.3 21.3 V G96 – Mt. Lemmon Survey MPS 276729
2008 02 11.09502 04 15 30.70 +18 59 54.9 21.0 V G96 – Mt. Lemmon Survey MPS 276729
2008 02 11.10054 04 15 30.78 +18 59 55.3 21.2 V G96 – Mt. Lemmon Survey MPS 276729
2008 02 11.10608 04 15 30.85 +18 59 55.7 21.2 V G96 – Mt. Lemmon Survey MPS 276729
2008 02 11.11156 04 15 31.03 +18 59 55.8 21.1 V G96 – Mt. Lemmon Survey MPS 276729
2009 01 01.47006 09 16 27.85 +10 38 17.7 21.3 V 691 – Steward Observatory, Kitt Peak-Spacewatch MPS 276729
2009 01 01.48819 09 16 27.36 +10 38 19.1 21.3 V 691 – Steward Observatory, Kitt Peak-Spacewatch MPS 276729
2009 01 01.50631 09 16 26.85 +10 38 19.6 21.5 V 691 – Steward Observatory, Kitt Peak-Spacewatch MPS 276729
2009 01 18.29227 09 06 26.95 +11 06 44.7   691 – Steward Observatory, Kitt Peak-Spacewatch MPS 276729
2009 01 18.31063 09 06 26.13 +11 06 46.8   691 – Steward Observatory, Kitt Peak-Spacewatch MPS 276729
2009 01 18.32876 09 06 25.35 +11 06 49.6   691 – Steward Observatory, Kitt Peak-Spacewatch MPS 276729
2009 01 31.21295 08 56 39.69 +11 43 03.9 21.2 V G96 – Mt. Lemmon Survey MPS 276729
2009 01 31.22038 08 56 39.30 +11 43 05.0 21.3 V G96 – Mt. Lemmon Survey MPS 276729
2009 01 31.22808 08 56 39.08 +11 43 06.2 21.7 V G96 – Mt. Lemmon Survey MPS 276729
2009 01 31.23573 08 56 38.58 +11 43 08.1 21.0 V G96 – Mt. Lemmon Survey MPS 276729
2009 02 04.25020 08 53 29.25 +11 55 56.6 20.5 V G96 – Mt. Lemmon Survey MPS 276729
2009 02 04.25639 08 53 28.96 +11 55 57.3 20.7 V G96 – Mt. Lemmon Survey MPS 276729
2009 02 04.26256 08 53 28.60 +11 55 58.7 21.0 V G96 – Mt. Lemmon Survey MPS 276729
2009 02 04.26869 08 53 28.35 +11 55 59.7 21.3 V G96 – Mt. Lemmon Survey MPS 276729
2010 03 12.38516 13 46 12.30 -13 56 29.1 21.1 V 691 – Steward Observatory, Kitt Peak-Spacewatch MPS 316806
2010 03 12.40287 13 46 11.90 -13 56 27.2 21.2 V 691 – Steward Observatory, Kitt Peak-Spacewatch MPS 316806
2010 03 12.42405 13 46 11.40 -13 56 24.3 20.9 V 691 – Steward Observatory, Kitt Peak-Spacewatch MPS 316806
2010 03 16.35720 13 44 38.81 -13 46 55.8 21.2 V 691 – Steward Observatory, Kitt Peak-Spacewatch MPS 318039
2010 03 16.37490 13 44 38.38 -13 46 53.6 21.1 V 691 – Steward Observatory, Kitt Peak-Spacewatch MPS 318039
2010 03 16.39262 13 44 37.91 -13 46 50.3 21.0 V 691 – Steward Observatory, Kitt Peak-Spacewatch MPS 318039
2010 03 20.36140 13 42 46.73 -13 35 15.3 20.7 V 691 – Steward Observatory, Kitt Peak-Spacewatch MPS 319426
2010 03 20.36386 13 42 46.66 -13 35 14.2 20.7 V 691 – Steward Observatory, Kitt Peak-Spacewatch MPS 319426
2010 03 20.37911 13 42 46.11 -13 35 11.2 20.8 V 691 – Steward Observatory, Kitt Peak-Spacewatch MPS 319426
2010 03 20.38158 13 42 46.08 -13 35 10.6 20.7 V 691 – Steward Observatory, Kitt Peak-Spacewatch MPS 319426
2010 03 20.39683 13 42 45.58 -13 35 08.1 20.8 V 691 – Steward Observatory, Kitt Peak-Spacewatch MPS 319426
2010 03 20.39930 13 42 45.52 -13 35 08.0 20.7 V 691 – Steward Observatory, Kitt Peak-Spacewatch MPS 319426
2010 04 17.18154 13 24 22.76 -11 29 32.3   691 – Steward Observatory, Kitt Peak-Spacewatch MPS 324818
2010 04 17.19921 13 24 21.97 -11 29 27.1   691 – Steward Observatory, Kitt Peak-Spacewatch MPS 324818
2010 04 17.21689 13 24 21.17 -11 29 21.2   691 – Steward Observatory, Kitt Peak-Spacewatch MPS 324818
2010 04 18.372461 13 23 30.578 -11 23 07.12 20.83 g F51 – Pan-STARRS 1, Haleakala MPS 338874
2010 04 18.380920 13 23 30.196 -11 23 04.54 20.85 g F51 – Pan-STARRS 1, Haleakala MPS 338874
2010 07 07.063480 13 14 12.79 -08 39 25.4   C51 – WISE MPS 339754
2010 07 07.195784 13 14 17.82 -08 39 46.2   C51 – WISE MPS 339754
2010 07 07.328088 13 14 22.79 -08 40 07.1   C51 – WISE MPS 339754
2010 07 07.592694 13 14 32.82 -08 40 48.2   C51 – WISE MPS 339754
2010 07 07.658784 13 14 35.25 -08 40 59.0   C51 – WISE MPS 339754
2010 07 07.724872 13 14 37.73 -08 41 09.0   C51 – WISE MPS 339754
2010 07 07.724999 13 14 37.76 -08 41 10.3   C51 – WISE MPS 339754
2010 07 07.92339 13 14 45.27 -08 41 42.1   C51 – WISE MPS 339754
2010 07 08.055694 13 14 50.37 -08 42 00.5   C51 – WISE MPS 339754
2010 07 08.187998 13 14 55.50 -08 42 24.5   C51 – WISE MPS 339754
2010 07 08.320302 13 15 00.46 -08 42 46.1   C51 – WISE MPS 339754
2011 06 27.29706 20 12 11.01 -14 46 10.4 20.0 V G96 – Mt. Lemmon Survey MPS 386251
2011 06 27.30506 20 12 10.72 -14 46 10.5 20.2 V G96 – Mt. Lemmon Survey MPS 386251
2011 06 27.31317 20 12 10.44 -14 46 10.4 20.1 V G96 – Mt. Lemmon Survey MPS 386251
2011 06 27.32138 20 12 10.15 -14 46 10.8 20.1 V G96 – Mt. Lemmon Survey MPS 386251
2011 07 20.48106 19 55 28.024 -15 12 26.85 19.9 i F51 – Pan-STARRS 1, Haleakala MPS 387733
2011 07 20.49168 19 55 27.526 -15 12 27.65 20.0 i F51 – Pan-STARRS 1, Haleakala MPS 387733
2011 07 27.42726 19 49 59.887 -15 25 27.69 20.6 g F51 – Pan-STARRS 1, Haleakala MPS 387733
2011 07 27.43692 19 49 59.415 -15 25 28.95 20.8 g F51 – Pan-STARRS 1, Haleakala MPS 387733
2011 07 27.44770 19 49 58.901 -15 25 30.08 20.2 r F51 – Pan-STARRS 1, Haleakala MPS 387733
2011 07 27.45691 19 49 58.456 -15 25 31.28 20.2 r F51 – Pan-STARRS 1, Haleakala MPS 387733
2012 09 16.33928 01 47 07.63 +13 57 22.7 20.6 V 691 – Steward Observatory, Kitt Peak-Spacewatch MPS 433159
2012 09 16.35722 01 47 07.15 +13 57 19.8 21.0 V 691 – Steward Observatory, Kitt Peak-Spacewatch MPS 433159
2012 09 16.37516 01 47 06.64 +13 57 16.9 20.8 V 691 – Steward Observatory, Kitt Peak-Spacewatch MPS 433159
2012 10 06.32641 01 35 14.20 +12 40 30.7 20.1 V G96 – Mt. Lemmon Survey MPS 434843
